Tracking 18951 objects as of 21-Jan-2018
HD Live streaming from Space Station
objects crossing your sky now

CZ-4 DEB


10-day predictions


NORAD ID: 35378
Int'l Code: 2006-046L
Launch date: October 23, 2006
Source: People's Republic of China (PRC)
Launch site: Taiyaun Space Center, China (TSC)

Note: This is SATELLITE DEBRIS
aabbcc
Your satellite tracking list
Your tracking list is empty




NASA's NSSDC Master Catalog

Two Line Element Set (TLE):
1 35378U 06046L   18021.21013647  .00000441  00000-0  83245-4 0  9993
2 35378  97.8183 166.2021 0171849  17.0532 343.6346 14.60216805588968
Source of the keplerian elements: AFSPC